FW2584 Weather Reports


Display with metric or nautical units.
time (UTC)temp
F
wind
direction
speed
MPH
gust
MPH
rain 1hr
in
rain 24hr
in
rain mn
in
humidity
%
barometer
mb
20260506231020 79 0 0.0 0.0 0.00 0.00 0.00 68 1011.8
20260506230522 79 0 0.0 0.0 0.00 0.00 0.00 68 1012.0
20260506230038 79 0 0.0 4.0 0.00 0.00 0.00 67 1012.0
20260506225520 79 0 0.0 4.0 0.00 0.00 0.00 67 1012.1
20260506225022 79 0 0.0 1.0 0.00 0.00 0.00 67 1012.4
20260506224533 80 0 0.0 1.0 0.00 0.00 0.00 67 1012.2
20260506224022 80 0 0.0 1.0 0.00 0.00 0.00 66 1012.4
20260506223522 80 0 0.0 1.0 0.00 0.00 0.00 66 1012.5
20260506223035 80 0 0.0 1.0 0.00 0.00 0.00 66 1012.6
20260506222524 81 0 0.0 4.0 0.00 0.00 0.00 65 1012.5
20260506222022 80 0 0.0 4.0 0.00 0.00 0.00 65 1012.4
20260506221534 81 180 0.0 6.0 0.00 0.00 0.00 65 1012.3
20260506221023 81 0 0.0 7.0 0.00 0.00 0.00 66 1012.4
20260506220523 81 0 1.0 7.0 0.00 0.00 0.00 64 1012.3
20260506220047 81 0 0.0 8.0 0.00 0.00 0.00 65 1012.3
20260506215523 81 0 1.0 8.0 0.00 0.00 0.00 64 1012.4
20260506215020 82 0 0.0 1.0 0.00 0.00 0.00 64 1012.2
20260506214535 82 0 0.0 1.0 0.00 0.00 0.00 64 1012.2
20260506214020 82 0 0.0 1.0 0.00 0.00 0.00 64 1012.1
20260506213520 82 0 0.0 4.0 0.00 0.00 0.00 65 1012.2
20260506213034 82 0 0.0 4.0 0.00 0.00 0.00 64 1012.3
20260506212527 81 0 0.0 4.0 0.00 0.00 0.00 65 1012.3
20260506212020 81 0 0.0 6.0 0.00 0.00 0.00 64 1012.4
20260506211536 81 0 0.0 6.0 0.00 0.00 0.00 64 1012.4
20260506211020 81 284 0.0 4.0 0.00 0.00 0.00 66 1012.4
20260506210520 81 0 0.0 4.0 0.00 0.00 0.00 64 1012.3
20260506210039 81 132 0.0 6.0 0.00 0.00 0.00 64 1012.3
20260506205520 81 0 0.0 6.0 0.00 0.00 0.00 66 1012.4
20260506205020 81 0 0.0 3.0 0.00 0.00 0.00 66 1012.5
20260506204536 81 0 0.0 2.0 0.00 0.00 0.00 66 1012.5
20260506204025 81 0 0.0 1.0 0.00 0.00 0.00 66 1012.6
20260506203523 81 0 0.0 1.0 0.00 0.00 0.00 66 1012.6
20260506203101 81 0 0.0 4.0 0.00 0.00 0.00 65 1012.7
20260506202525 81 0 0.0 4.0 0.00 0.00 0.00 63 1012.7
20260506202023 81 0 0.0 4.0 0.00 0.00 0.00 63 1012.8
20260506201533 80 0 0.0 4.0 0.00 0.00 0.00 65 1012.9
20260506201022 80 0 0.0 4.0 0.00 0.00 0.00 64 1012.9
20260506200522 81 0 1.0 4.0 0.00 0.00 0.00 63 1013.1
20260506200045 81 202 0.0 4.0 0.00 0.00 0.00 63 1012.9
20260506195522 81 0 0.0 5.0 0.00 0.00 0.00 65 1012.8
20260506195022 80 0 0.0 5.0 0.00 0.00 0.00 66 1012.8
20260506194539 79 220 0.0 5.0 0.00 0.00 0.00 66 1013.0
20260506194021 80 0 0.0 2.0 0.00 0.00 0.00 68 1013.1
20260506193520 80 0 0.0 2.0 0.00 0.00 0.00 68 1013.1
20260506193037 79 0 0.0 1.0 0.00 0.00 0.00 69 1013.2
20260506192524 79 0 0.0 1.0 0.00 0.00 0.00 66 1013.4
20260506192023 79 0 0.0 1.0 0.00 0.00 0.00 67 1013.4
20260506191536 78 0 0.0 7.0 0.00 0.00 0.00 69 1013.2
20260506191023 78 0 0.0 7.0 0.00 0.00 0.00 66 1012.7
20260506190522 79 0 0.0 6.0 0.00 0.00 0.00 65 1014.0
20260506190044 79 169 1.0 6.0 0.00 0.00 0.00 65 1014.4
20260506185522 80 0 0.0 5.0 0.00 0.00 0.00 66 1014.4
20260506185022 80 0 0.0 5.0 0.00 0.00 0.00 65 1014.0
20260506184550 80 0 0.0 1.0 0.00 0.00 0.00 67 1013.8
20260506184023 79 0 0.0 1.0 0.00 0.00 0.00 68 1013.8
20260506183524 79 0 0.0 3.0 0.00 0.00 0.00 66 1013.7
20260506183039 79 0 0.0 4.0 0.00 0.00 0.00 66 1014.0
20260506182522 79 0 0.0 4.0 0.00 0.00 0.00 65 1014.2
20260506182026 79 0 0.0 4.0 0.00 0.00 0.00 65 1014.2
20260506181539 79 0 0.0 4.0 0.00 0.00 0.00 65 1014.2
20260506181023 79 0 0.0 4.0 0.00 0.00 0.00 65 1014.4
20260506180523 79 0 0.0 4.0 0.00 0.00 0.00 66 1014.5
20260506180037 79 0 0.0 5.0 0.00 0.00 0.00 65 1014.8
20260506175523 80 0 0.0 7.0 0.00 0.00 0.00 64 1014.6
20260506175022 80 0 0.0 7.0 0.00 0.00 0.00 63 1014.7
20260506174533 80 0 1.0 7.0 0.00 0.00 0.00 63 1014.8
20260506174025 80 0 1.0 7.0 0.00 0.00 0.00 64 1014.9
20260506173520 80 0 0.0 10.0 0.00 0.00 0.00 65 1014.9
20260506173051 80 0 0.0 10.0 0.00 0.00 0.00 66 1015.1
20260506172523 79 123 0.0 5.0 0.00 0.00 0.00 66 1015.0
20260506172023 79 165 1.0 7.0 0.00 0.00 0.00 66 1015.0
20260506171539 80 0 2.0 8.0 0.00 0.00 0.00 65 1015.2
20260506171023 79 10 2.0 8.0 0.00 0.00 0.00 68 1015.2
20260506170526 80 0 1.0 8.0 0.00 0.00 0.00 66 1015.2
20260506170037 80 226 1.0 8.0 0.00 0.00 0.00 66 1015.3
20260506165523 80 124 1.0 8.0 0.00 0.00 0.00 67 1015.4
20260506165024 79 0 1.0 8.0 0.00 0.00 0.00 68 1015.3
20260506164538 79 0 0.0 6.0 0.00 0.00 0.00 68 1015.4
20260506164022 79 0 2.0 7.0 0.00 0.00 0.00 68 1015.6
20260506163522 78 0 1.0 7.0 0.00 0.00 0.00 70 1015.5
20260506163054 78 119 1.0 9.0 0.00 0.00 0.00 69 1015.6
20260506162523 78 0 1.0 9.0 0.00 0.00 0.00 69 1015.5
20260506162023 78 0 0.0 5.0 0.00 0.00 0.00 70 1015.4
20260506161540 78 245 1.0 7.0 0.00 0.00 0.00 69 1015.2
20260506161022 79 304 1.0 7.0 0.00 0.00 0.00 68 1015.1
20260506160523 79 0 1.0 7.0 0.00 0.00 0.00 67 1015.1
20260506160040 79 0 1.0 7.0 0.00 0.00 0.00 68 1015.4
20260506155523 79 0 1.0 7.0 0.00 0.00 0.00 68 1015.4
20260506155023 78 0 0.0 4.0 0.00 0.00 0.00 70 1015.4
20260506154544 77 248 0.0 7.0 0.00 0.00 0.00 71 1015.5
20260506154023 77 80 0.0 7.0 0.00 0.00 0.00 71 1015.5
20260506153523 77 140 2.0 7.0 0.00 0.00 0.00 70 1015.3
20260506153035 77 0 0.0 12.0 0.00 0.00 0.00 71 1015.3
20260506152523 76 134 1.0 12.0 0.00 0.00 0.00 71 1015.4
20260506152023 77 239 1.0 6.0 0.00 0.00 0.00 71 1015.4
20260506151543 76 244 2.0 6.0 0.00 0.00 0.00 72 1015.4
20260506151023 75 91 0.0 6.0 0.00 0.00 0.00 73 1015.4
20260506150522 74 182 0.0 6.0 0.00 0.00 0.00 76 1015.4
20260506150038 74 0 0.0 5.0 0.00 0.00 0.00 75 1015.6
20260506145523 73 0 0.0 5.0 0.00 0.00 0.00 76 1015.6
20260506145023 73 0 0.0 3.0 0.00 0.00 0.00 77 1015.6
20260506144538 72 0 0.0 5.0 0.00 0.00 0.00 77 1015.6
20260506144021 72 159 0.0 7.0 0.00 0.00 0.00 77 1015.6
20260506143523 72 0 1.0 7.0 0.00 0.00 0.00 77 1015.6
20260506143038 72 0 0.0 3.0 0.00 0.00 0.00 78 1015.5
20260506142527 71 232 0.0 8.0 0.00 0.00 0.00 79 1015.6
20260506142026 71 0 0.0 8.0 0.00 0.00 0.00 79 1015.7
20260506141533 71 230 0.0 7.0 0.00 0.00 0.00 80 1015.5
20260506141023 71 0 0.0 7.0 0.00 0.00 0.00 81 1015.6
20260506140520 70 273 0.0 5.0 0.00 0.00 0.00 81 1015.7
20260506140036 70 249 1.0 5.0 0.00 0.00 0.00 82 1015.8
20260506135521 70 0 1.0 5.0 0.00 0.00 0.00 81 1015.8
20260506135025 70 0 0.0 3.0 0.00 0.00 0.00 82 1015.8
20260506134540 70 0 0.0 3.0 0.00 0.00 0.00 82 1015.7
20260506134023 69 0 0.0 3.0 0.00 0.00 0.00 83 1015.8
20260506133523 69 0 0.0 3.0 0.00 0.00 0.00 84 1015.8
20260506133038 68 0 0.0 6.0 0.00 0.00 0.00 85 1015.7
20260506132523 68 0 0.0 6.0 0.00 0.00 0.00 85 1015.7
20260506132023 67 0 0.0 1.0 0.00 0.00 0.00 86 1015.6
20260506131537 67 0 0.0 1.0 0.00 0.00 0.00 86 1015.6
20260506131020 67 0 0.0 1.0 0.00 0.00 0.00 87 1015.7
20260506130522 67 0 0.0 1.0 0.00 0.00 0.00 86 1015.6
20260506130033 66 0 0.0 0.0 0.00 0.00 0.00 87 1015.7
20260506125522 66 0 0.0 0.0 0.00 0.00 0.00 88 1015.5
20260506125022 66 0 0.0 0.0 0.00 0.00 0.00 89 1015.3
20260506124535 65 0 0.0 1.0 0.00 0.00 0.00 89 1015.3
20260506124022 65 0 0.0 1.0 0.00 0.00 0.00 88 1015.5
20260506123522 65 0 0.0 0.0 0.00 0.00 0.00 89 1015.5
20260506123040 64 0 0.0 0.0 0.00 0.00 0.00 89 1015.2
20260506122522 64 0 0.0 0.0 0.00 0.00 0.00 88 1015.3
20260506122023 64 0 0.0 1.0 0.00 0.00 0.00 89 1015.3
20260506121546 64 0 0.0 1.0 0.00 0.00 0.00 89 1015.2
20260506121025 64 0 0.0 0.0 0.00 0.00 0.00 88 1015.1
20260506120523 64 0 0.0 0.0 0.00 0.00 0.00 89 1015.0
20260506120041 63 0 0.0 0.0 0.00 0.00 0.00 89 1015.0
20260506115523 63 0 0.0 0.0 0.00 0.00 0.00 89 1015.1
20260506115022 63 0 0.0 1.0 0.00 0.00 0.00 89 1015.0
20260506114535 62 0 0.0 1.0 0.00 0.00 0.00 90 1015.0
20260506114026 62 0 0.0 0.0 0.00 0.00 0.00 90 1014.9
20260506113523 62 0 0.0 0.0 0.00 0.00 0.00 90 1014.8
20260506113035 62 0 0.0 0.0 0.00 0.00 0.00 91 1014.9
20260506112526 61 0 0.0 0.0 0.00 0.00 0.00 92 1014.9
20260506112025 61 0 0.0 2.0 0.00 0.00 0.00 92 1014.9
20260506111538 61 0 0.0 2.0 0.00 0.00 0.00 92 1014.9
20260506111023 60 0 0.0 2.0 0.00 0.00 0.00 92 1014.8
20260506110523 60 0 0.0 1.0 0.00 0.00 0.00 92 1014.7
20260506110040 60 0 0.0 1.0 0.00 0.00 0.00 92 1014.7
20260506105522 60 0 0.0 1.0 0.00 0.00 0.00 92 1014.7
20260506105022 60 0 0.0 0.0 0.00 0.00 0.00 92 1014.7
20260506104536 60 0 0.0 0.0 0.00 0.00 0.00 92 1014.6
20260506104023 60 0 0.0 0.0 0.00 0.00 0.00 92 1014.6
20260506103522 60 0 0.0 0.0 0.00 0.00 0.00 92 1014.6
20260506103035 60 0 0.0 0.0 0.00 0.00 0.00 92 1014.6
20260506102523 60 0 0.0 0.0 0.00 0.00 0.00 92 1014.6
20260506102023 60 0 0.0 0.0 0.00 0.00 0.00 92 1014.6
20260506101538 60 0 0.0 0.0 0.00 0.00 0.00 92 1014.7
20260506101024 60 0 0.0 0.0 0.00 0.00 0.00 92 1014.7
20260506100522 60 0 0.0 0.0 0.00 0.00 0.00 92 1014.7
20260506100037 60 0 0.0 0.0 0.00 0.00 0.00 92 1014.7
20260506095523 60 0 0.0 0.0 0.00 0.00 0.00 92 1014.8
20260506095022 60 0 0.0 0.0 0.00 0.00 0.00 92 1014.8
20260506094533 60 0 0.0 0.0 0.00 0.00 0.00 92 1014.9
20260506094022 60 0 0.0 0.0 0.00 0.00 0.00 92 1015.0
20260506093525 60 0 0.0 0.0 0.00 0.00 0.00 92 1015.1
20260506093033 60 0 0.0 0.0 0.00 0.00 0.00 92 1015.1
20260506092522 60 0 0.0 0.0 0.00 0.00 0.00 92 1015.3
20260506092023 60 0 0.0 0.0 0.00 0.00 0.00 91 1015.2
20260506091535 60 0 0.0 0.0 0.00 0.00 0.00 91 1015.4
20260506091025 60 0 0.0 0.0 0.00 0.00 0.00 91 1015.3
20260506090522 60 0 0.0 0.0 0.00 0.00 0.00 91 1015.3
20260506090034 60 0 0.0 0.0 0.00 0.00 0.00 91 1015.4
20260506085523 60 0 0.0 0.0 0.00 0.00 0.00 91 1015.5
20260506085022 60 0 0.0 0.0 0.00 0.00 0.00 91 1015.3
20260506084544 60 0 0.0 0.0 0.00 0.00 0.00 91 1015.3
20260506084023 60 0 0.0 0.0 0.00 0.00 0.00 91 1015.3
20260506083525 60 0 0.0 0.0 0.00 0.00 0.00 91 1015.2
20260506083038 60 0 0.0 0.0 0.00 0.00 0.00 91 1015.2
20260506082525 60 0 0.0 0.0 0.00 0.00 0.00 91 1015.2
20260506082022 60 0 0.0 0.0 0.00 0.00 0.00 91 1015.3
20260506081540 60 0 0.0 0.0 0.00 0.00 0.00 91 1015.3
20260506081023 60 0 0.0 0.0 0.00 0.00 0.00 90 1015.3
20260506080523 60 0 0.0 0.0 0.00 0.00 0.00 90 1015.2
20260506073526 60 0 0.0 0.0 0.00 0.00 0.00 91 1015.1
20260506073039 60 0 0.0 0.0 0.00 0.00 0.00 91 1015.0
20260506072522 60 0 0.0 0.0 0.00 0.00 0.00 91 1015.2
20260506072021 60 0 0.0 0.0 0.00 0.00 0.00 91 1015.3
20260506071534 60 0 0.0 0.0 0.00 0.00 0.00 91 1015.1
20260506071023 60 0 0.0 0.0 0.00 0.00 0.00 90 1015.2
20260506070527 60 0 0.0 0.0 0.00 0.00 0.00 90 1015.2
20260506062022 61 0 0.0 0.0 0.00 0.00 0.00 88 1015.3
20260506061535 61 0 0.0 0.0 0.00 0.00 0.00 88 1015.4
20260506061026 62 0 0.0 0.0 0.00 0.00 0.00 87 1015.4
20260506060523 62 0 0.0 0.0 0.00 0.00 0.00 87 1015.4
20260506051025 62 0 0.0 0.0 0.00 0.00 0.00 87 1015.9
20260506050522 62 0 0.0 0.0 0.00 0.00 0.00 87 1015.9
20260506045022 62 0 0.0 0.0 0.00 0.00 0.00 87 1016.0
20260506044538 62 0 0.0 0.0 0.00 0.00 0.00 86 1016.0
20260506044022 62 0 0.0 0.0 0.00 0.00 0.00 86 1016.1
20260506043522 62 0 0.0 0.0 0.00 0.00 0.00 86 1016.2
20260506043035 62 0 0.0 0.0 0.00 0.00 0.00 86 1016.1
20260506042522 62 0 0.0 0.0 0.00 0.00 0.00 85 1016.2
20260506042022 63 0 0.0 0.0 0.00 0.00 0.00 85 1016.0
20260506041551 63 0 0.0 0.0 0.00 0.00 0.00 84 1016.1
20260506041022 63 0 0.0 0.0 0.00 0.00 0.00 84 1016.0
20260506040522 64 0 0.0 0.0 0.00 0.00 0.00 84 1016.0
20260506040034 64 0 0.0 0.0 0.00 0.00 0.00 83 1016.1
20260506035522 64 0 0.0 0.0 0.00 0.00 0.00 83 1016.1
20260506035022 64 0 0.0 0.0 0.00 0.00 0.00 83 1016.0
20260506034549 64 0 0.0 0.0 0.00 0.00 0.00 83 1016.1
20260506034025 64 0 0.0 0.0 0.00 0.00 0.00 82 1016.0
20260506033529 64 0 0.0 0.0 0.00 0.00 0.00 82 1016.1
20260506033039 64 0 0.0 0.0 0.00 0.00 0.00 82 1016.2
20260506032522 64 0 0.0 0.0 0.00 0.00 0.00 82 1016.2
20260506032022 65 0 0.0 0.0 0.00 0.00 0.00 82 1016.3
20260506031535 65 0 0.0 0.0 0.00 0.00 0.00 81 1016.3
20260506031024 65 0 0.0 0.0 0.00 0.00 0.00 80 1016.5
20260506030521 65 0 0.0 0.0 0.00 0.00 0.00 80 1016.5
20260506030037 66 0 0.0 0.0 0.00 0.00 0.00 79 1016.5
20260506025526 66 0 0.0 0.0 0.00 0.00 0.00 79 1016.6
20260506025022 66 0 0.0 0.0 0.00 0.00 0.00 79 1016.6
20260506024542 66 0 0.0 0.0 0.00 0.00 0.00 78 1016.6
20260506024022 67 0 0.0 0.0 0.00 0.00 0.00 77 1016.5
20260506023526 67 0 0.0 0.0 0.00 0.00 0.00 77 1016.4
20260506023039 67 0 0.0 2.0 0.00 0.00 0.00 76 1016.4
20260506022522 68 0 0.0 2.0 0.00 0.00 0.00 76 1016.4
20260506022023 68 0 0.0 3.0 0.00 0.00 0.00 75 1016.3
20260506021536 68 0 0.0 3.0 0.00 0.00 0.00 75 1016.2
20260506021021 68 0 0.0 0.0 0.00 0.00 0.00 74 1016.1
20260506020526 68 0 0.0 1.0 0.00 0.00 0.00 74 1016.0
20260506020109 69 0 0.0 1.0 0.00 0.00 0.00 73 1015.9
20260506020035 69 0 0.0 1.0 0.00 0.00 0.00 73 1015.9
20260506015522 69 0 0.0 1.0 0.00 0.00 0.00 72 1015.9
20260506015023 69 0 0.0 3.0 0.00 0.00 0.00 72 1015.9
20260506014533 69 0 0.0 5.0 0.00 0.00 0.00 71 1015.7
20260506014021 69 0 0.0 5.0 0.00 0.00 0.00 71 1015.7
20260506013521 70 0 0.0 1.0 0.00 0.00 0.00 70 1015.5
20260506013051 70 0 0.0 1.0 0.00 0.00 0.00 70 1015.5
20260506012522 70 0 0.0 1.0 0.00 0.00 0.00 69 1015.6
20260506012022 70 0 0.0 1.0 0.00 0.00 0.00 69 1015.6
20260506011541 70 0 0.0 1.0 0.00 0.00 0.00 69 1015.6
20260506011022 71 0 0.0 5.0 0.00 0.00 0.00 69 1015.5
20260506010522 71 0 0.0 5.0 0.00 0.00 0.00 67 1015.4
20260506010037 71 0 0.0 3.0 0.00 0.00 0.00 67 1015.3
20260506005526 71 0 0.0 3.0 0.00 0.00 0.00 67 1015.1
20260506005022 71 0 0.0 2.0 0.00 0.00 0.00 67 1015.1
20260506004540 72 0 0.0 5.0 0.00 0.00 0.00 67 1015.1
20260506004020 72 0 0.0 6.0 0.00 0.00 0.00 67 1014.9
20260506003521 72 0 1.0 6.0 0.00 0.00 0.00 67 1014.8
20260506003033 72 0 0.0 3.0 0.00 0.00 0.00 68 1014.7
20260506002521 72 0 0.0 3.0 0.00 0.00 0.00 67 1014.8
20260506002023 73 0 0.0 1.0 0.00 0.00 0.00 67 1014.7
20260506001542 73 0 0.0 1.0 0.00 0.00 0.00 66 1014.6
20260506001023 73 0 0.0 1.0 0.00 0.00 0.00 66 1014.7
20260506000522 73 0 0.0 1.0 0.00 0.00 0.00 65 1014.6
20260506000038 74 0 0.0 1.0 0.00 0.00 0.00 65 1014.4
20260505235521 74 0 0.0 0.0 0.00 0.00 0.00 64 1014.5
20260505235022 74 0 0.0 1.0 0.00 0.00 0.00 64 1014.5
20260505234538 75 0 0.0 1.0 0.00 0.00 0.00 63 1014.4
20260505234023 75 0 0.0 1.0 0.00 0.00 0.00 62 1014.3
20260505233521 76 0 0.0 3.0 0.00 0.00 0.00 62 1014.3
20260505233033 76 0 0.0 3.0 0.00 0.00 0.00 61 1014.2
20260505232521 76 149 0.0 5.0 0.00 0.00 0.00 59 1014.2
20260505232023 77 0 0.0 5.0 0.00 0.00 0.00 58 1014.1
20260505231536 77 0 0.0 2.0 0.00 0.00 0.00 55 1014.1